{"data":{"norad_id":54099,"intl_designator":"2022-136BA","name":"STARLINK-5198","alt_names":[],"object_type":"PAYLOAD","status":"ACTIVE","operator":null,"country":"US","launch_date":"2022-10-20","launch_site_code":"AFETR","launch_vehicle":null,"mission":null,"orbit_class":"UNKNOWN","rcs_meters":null,"size_class":null,"mass_kg":null,"dimensions":null,"purposes":["comms"],"wikipedia_slug":null,"has_3d_model":false,"image_url":null,"decayed_at":null,"tle_current":{"epoch":"2026-09-20T22:00:03.000096Z","epoch_age_seconds":53211,"freshness":"FRESH","line1":"1 54099U 22136BA  26263.91670139  .00009960  00000+0  59264-3 0  9998","line2":"2 54099  53.1603 176.5750 0001830  27.4582 325.2666 15.11827067  5797","mean_motion":15.11827067,"eccentricity":0.000183,"inclination_deg":53.1603,"raan_deg":176.575,"arg_perigee_deg":27.4582,"mean_anomaly_deg":325.2666,"bstar":0.00059264,"rev_number":579,"period_min":95.248989215246,"perigee_km":529.36385240135,"apogee_km":531.8924604486,"semimajor_km":6908.765156425,"source":"CELESTRAK","updated_at":"2026-09-21T09:00:33.085277Z"}}}